^^
Station Historical Data
 
Daily Summary for September 18, 2019 Units:  Metric    English   Both
Next Day »
Daily Weekly Monthly Yearly Custom
  Current: High: Low: Average:
Temperature: 15.4 °C 15.4 °C 9.6 °C 11.8 °C
Dew Point: 8.8 °C 10.1 °C 7.8 °C 8.6 °C
Humidity: 65% 90% 65% 82%
Wind Speed: 4.8km/h 8.0km/h 0.0km/h 1.4km/h
Wind Gust: 9.7km/h 14.5km/h - -
WindNE - - NE
Pressure: 1028.3 hPa 1028.3 hPa 1024.2 hPa -
Precipitation: 0.0 mm      
Historical Graphs
 
 
These are the results of the file assigned to $inboxfile in your configuration

Weather Camera

Quebec Radar

This and the area below are optional for those who wish to use them.



This begins the code in the file assigned to $outboxfile in your configuration
 height=
Find more about Weather in Pointe-Claire, CA
Click for weather forecast
Tabular Data for September 18, 2019
Time Temperature Dew Point Pressure Wind Wind Speed Wind Gust Humidity Rainfall Rate (Hourly) solar Conditions
00:00 14.2 °C 8.2 °C 1024.2 hPa Calm     67% 0.0 mm 0.00 W/m2 SKC
00:05 14.2 °C 8.3 °C 1024.3 hPa Calm     68% 0.0 mm 0.00 W/m2 SKC
00:10 14.1 °C 8.3 °C 1024.3 hPa Calm     68% 0.0 mm 0.00 W/m2 SKC
00:15 14.1 °C 8.3 °C 1024.4 hPa Calm     68% 0.0 mm 0.00 W/m2 SKC
00:20 14.1 °C 8.3 °C 1024.5 hPa Calm     68% 0.0 mm 0.00 W/m2 SKC
00:25 14.1 °C 8.2 °C 1024.5 hPa Calm     68% 0.0 mm 0.00 W/m2 SKC
00:30 13.9 °C 8.3 °C 1024.5 hPa Calm     69% 0.0 mm 0.00 W/m2 SKC
00:35 13.9 °C 8.3 °C 1024.5 hPa Calm     69% 0.0 mm 0.00 W/m2 SKC
00:40 13.8 °C 8.2 °C 1024.5 hPa Calm     69% 0.0 mm 0.00 W/m2 SKC
00:45 13.8 °C 8.4 °C 1024.6 hPa Calm     70% 0.0 mm 0.00 W/m2 SKC
00:50 13.7 °C 8.3 °C 1024.7 hPa Calm     70% 0.0 mm 0.00 W/m2 SKC
00:55 13.6 °C 8.2 °C 1024.7 hPa Calm     70% 0.0 mm 0.00 W/m2 SKC
01:00 13.4 °C 8.1 °C 1024.7 hPa Calm     70% 0.0 mm 0.00 W/m2 SKC
01:05 13.4 °C 8.2 °C 1024.8 hPa Calm     71% 0.0 mm 0.00 W/m2 SKC
01:10 13.3 °C 8.1 °C 1024.9 hPa Calm     71% 0.0 mm 0.00 W/m2 SKC
01:15 13.2 °C 8.2 °C 1025.0 hPa Calm     72% 0.0 mm 0.00 W/m2 SKC
01:20 13.1 °C 8.1 °C 1025.1 hPa Calm     72% 0.0 mm 0.00 W/m2 SKC
01:25 13.0 °C 8.1 °C 1025.1 hPa Calm     72% 0.0 mm 0.00 W/m2 SKC
01:30 12.9 °C 8.0 °C 1025.0 hPa Calm     72% 0.0 mm 0.00 W/m2 SKC
01:35 12.8 °C 8.1 °C 1025.0 hPa Calm   1.6 km/h 73% 0.0 mm 0.00 W/m2 SKC
01:40 12.8 °C 8.4 °C 1025.0 hPa Calm     75% 0.0 mm 0.00 W/m2 SKC
01:45 12.8 °C 8.7 °C 1024.9 hPa Calm     76% 0.0 mm 0.00 W/m2 SKC
01:50 12.7 °C 8.6 °C 1025.0 hPa Calm     76% 0.0 mm 0.00 W/m2 SKC
01:55 12.7 °C 8.6 °C 1025.0 hPa Calm     76% 0.0 mm 0.00 W/m2 SKC
02:00 12.7 °C 8.6 °C 1025.0 hPa Calm     76% 0.0 mm 0.00 W/m2 SKC
02:05 12.6 °C 8.6 °C 1025.1 hPa Calm     77% 0.0 mm 0.00 W/m2 SKC
02:10 12.5 °C 8.6 °C 1025.1 hPa Calm     77% 0.0 mm 0.00 W/m2 SKC
02:15 12.4 °C 8.5 °C 1025.3 hPa Calm     77% 0.0 mm 0.00 W/m2 SKC
02:20 12.3 °C 8.6 °C 1025.3 hPa Calm     78% 0.0 mm 0.00 W/m2 SKC
02:25 12.3 °C 8.6 °C 1025.2 hPa Calm   3.2 km/h 78% 0.0 mm 0.00 W/m2 SKC
02:30 12.2 °C 8.7 °C 1025.2 hPa Calm   3.2 km/h 79% 0.0 mm 0.00 W/m2 SKC
02:35 12.1 °C 8.6 °C 1025.1 hPa Calm     79% 0.0 mm 0.00 W/m2 SKC
02:40 12.1 °C 8.7 °C 1025.2 hPa Calm     80% 0.0 mm 0.00 W/m2 SKC
02:45 12.0 °C 8.7 °C 1025.2 hPa Calm     80% 0.0 mm 0.00 W/m2 SKC
02:50 11.9 °C 8.8 °C 1025.1 hPa Calm   3.2 km/h 81% 0.0 mm 0.00 W/m2 SKC
02:55 11.8 °C 8.7 °C 1025.2 hPa Calm   1.6 km/h 81% 0.0 mm 0.00 W/m2 SKC
03:00 11.8 °C 8.8 °C 1025.3 hPa Calm   1.6 km/h 82% 0.0 mm 0.00 W/m2 SKC
03:05 11.7 °C 8.7 °C 1025.3 hPa Calm     82% 0.0 mm 0.00 W/m2 SKC
03:10 11.7 °C 8.7 °C 1025.3 hPa Calm   1.6 km/h 82% 0.0 mm 0.00 W/m2 SKC
03:15 11.6 °C 8.8 °C 1025.3 hPa Calm   3.2 km/h 83% 0.0 mm 0.00 W/m2 FEW
03:20 11.5 °C 8.7 °C 1025.3 hPa Calm   1.6 km/h 83% 0.0 mm 0.00 W/m2 FEW
03:25 11.4 °C 8.7 °C 1025.3 hPa Calm   3.2 km/h 83% 0.0 mm 0.00 W/m2 FEW
03:30 11.3 °C 8.7 °C 1025.3 hPa Calm   3.2 km/h 84% 0.0 mm 0.00 W/m2 FEW
03:35 11.2 °C 8.6 °C 1025.3 hPa Calm   1.6 km/h 84% 0.0 mm 0.00 W/m2 FEW
03:40 11.2 °C 8.6 °C 1025.4 hPa Calm   3.2 km/h 84% 0.0 mm 0.00 W/m2 FEW
03:45 11.1 °C 8.7 °C 1025.5 hPa Calm   3.2 km/h 85% 0.0 mm 0.00 W/m2 FEW
03:50 11.1 °C 8.6 °C 1025.6 hPa Calm     85% 0.0 mm 0.00 W/m2 FEW
03:55 11.0 °C 8.6 °C 1025.7 hPa Calm     85% 0.0 mm 0.00 W/m2 FEW
04:00 10.9 °C 8.5 °C 1025.7 hPa Calm     85% 0.0 mm 0.00 W/m2 FEW
04:05 10.9 °C 8.5 °C 1025.7 hPa Calm     85% 0.0 mm 0.00 W/m2 FEW
04:10 10.8 °C 8.6 °C 1025.8 hPa Calm   3.2 km/h 86% 0.0 mm 0.00 W/m2 FEW
04:15 10.8 °C 8.6 °C 1025.8 hPa Calm   3.2 km/h 86% 0.0 mm 0.00 W/m2 SKC
04:20 10.7 °C 8.4 °C 1025.8 hPa Calm   4.8 km/h 86% 0.0 mm 0.00 W/m2 SKC
04:25 10.6 °C 8.5 °C 1025.7 hPa Calm   3.2 km/h 87% 0.0 mm 0.00 W/m2 SKC
04:30 10.5 °C 8.4 °C 1025.8 hPa Calm   3.2 km/h 87% 0.0 mm 0.00 W/m2 SKC
04:35 10.4 °C 8.3 °C 1026.0 hPa Calm   4.8 km/h 87% 0.0 mm 0.00 W/m2 SKC
04:40 10.3 °C 8.3 °C 1026.0 hPa Calm   3.2 km/h 87% 0.0 mm 0.00 W/m2 SKC
04:45 10.3 °C 8.2 °C 1026.0 hPa ENE 1.6 km/h 4.8 km/h 87% 0.0 mm 0.00 W/m2 SKC
05:03 9.9 °C 8.1 °C 1026.0 hPa NE 0.5 km/h 1.9 km/h 88% 0.0 mm 0.00 W/m2 SKC
05:05 9.9 °C 8.1 °C 1026.0 hPa Calm   4.8 km/h 88% 0.0 mm 0.00 W/m2 SKC
05:10 9.9 °C 8.2 °C 1026.0 hPa NE 1.6 km/h 4.8 km/h 89% 0.0 mm 0.00 W/m2 SKC
05:15 9.8 °C 8.1 °C 1026.1 hPa NNE 1.6 km/h 4.8 km/h 89% 0.0 mm 0.00 W/m2 SKC
05:20 9.8 °C 8.1 °C 1026.1 hPa NNE 1.6 km/h 4.8 km/h 89% 0.0 mm 0.00 W/m2 SKC
05:25 9.8 °C 8.1 °C 1026.1 hPa Calm   3.2 km/h 89% 0.0 mm 0.00 W/m2 SKC
05:30 9.8 °C 8.1 °C 1026.1 hPa Calm   4.8 km/h 89% 0.0 mm 0.00 W/m2 SKC
05:35 9.7 °C 8.0 °C 1026.2 hPa Calm   3.2 km/h 89% 0.0 mm 0.00 W/m2 SKC
05:40 9.7 °C 8.0 °C 1026.5 hPa North 1.0 km/h 5.6 km/h 89% 0.0 mm 0.00 W/m2 SKC
05:45 9.7 °C 7.9 °C 1026.4 hPa Calm   3.2 km/h 89% 0.0 mm 0.00 W/m2 SKC
05:50 9.6 °C 7.9 °C 1026.4 hPa Calm   3.2 km/h 89% 0.0 mm 0.00 W/m2 SKC
05:55 9.6 °C 7.9 °C 1026.4 hPa Calm   3.2 km/h 89% 0.0 mm 0.00 W/m2 SKC
06:00 9.6 °C 7.8 °C 1026.5 hPa Calm   3.2 km/h 89% 0.0 mm 0.00 W/m2 SKC
06:05 9.6 °C 8.0 °C 1026.6 hPa NNE 1.6 km/h 4.8 km/h 90% 0.0 mm 0.00 W/m2 SKC
06:10 9.6 °C 8.0 °C 1026.5 hPa Calm   4.8 km/h 90% 0.0 mm 0.00 W/m2 SKC
06:15 9.6 °C 8.0 °C 1026.6 hPa NE 1.6 km/h 6.4 km/h 90% 0.0 mm 0.00 W/m2 SKC
06:20 9.6 °C 8.0 °C 1026.7 hPa NE 1.6 km/h 4.8 km/h 90% 0.0 mm 0.00 W/m2 SKC
06:25 9.6 °C 8.0 °C 1026.7 hPa Calm   4.8 km/h 90% 0.0 mm 0.00 W/m2 SKC
06:30 9.6 °C 8.1 °C 1026.6 hPa NE 1.4 km/h 3.7 km/h 90% 0.0 mm 0.00 W/m2 SKC
06:35 9.6 °C 8.0 °C 1026.6 hPa NE 1.6 km/h 8.0 km/h 90% 0.0 mm 0.00 W/m2 SKC
06:40 9.6 °C 8.0 °C 1026.6 hPa Calm   3.2 km/h 90% 0.0 mm 5.00 W/m2 SKC
06:45 9.6 °C 8.1 °C 1026.8 hPa Calm     90% 0.0 mm 7.00 W/m2 SKC
06:50 9.6 °C 8.1 °C 1027.0 hPa NE 1.6 km/h 6.4 km/h 90% 0.0 mm 12.00 W/m2 SKC
06:55 9.6 °C 8.0 °C 1027.1 hPa Calm   3.2 km/h 90% 0.0 mm 14.00 W/m2 SKC
07:00 9.6 °C 8.1 °C 1027.1 hPa Calm   3.2 km/h 90% 0.0 mm 19.00 W/m2 SKC
07:05 9.6 °C 8.1 °C 1027.1 hPa Calm   4.8 km/h 90% 0.0 mm 25.00 W/m2 SKC
07:10 9.7 °C 8.1 °C 1027.2 hPa Calm   3.2 km/h 90% 0.0 mm 46.00 W/m2 SKC
07:15 9.7 °C 8.1 °C 1027.2 hPa Calm   3.2 km/h 90% 0.0 mm 56.00 W/m2 FEW
07:21 9.7 °C 8.2 °C 1027.2 hPa NNE 0.5 km/h 3.7 km/h 90% 0.0 mm 74.00 W/m2 FEW
07:25 9.8 °C 8.2 °C 1027.3 hPa Calm   4.8 km/h 90% 0.0 mm 84.00 W/m2 FEW
07:30 9.8 °C 8.3 °C 1027.4 hPa Calm   3.2 km/h 90% 0.0 mm 98.00 W/m2 FEW
07:35 9.9 °C 8.4 °C 1027.4 hPa Calm   1.6 km/h 90% 0.0 mm 116.00 W/m2 FEW
07:40 10.1 °C 8.5 °C 1027.5 hPa Calm   4.8 km/h 90% 0.0 mm 132.00 W/m2 FEW
07:45 10.3 °C 8.7 °C 1027.5 hPa Calm   6.4 km/h 90% 0.0 mm 151.00 W/m2 FEW
07:50 10.5 °C 8.8 °C 1027.6 hPa NNE 1.6 km/h 4.8 km/h 89% 0.0 mm 172.00 W/m2 FEW
07:55 10.7 °C 9.0 °C 1027.8 hPa NNE 1.6 km/h 4.8 km/h 89% 0.0 mm 193.00 W/m2 FEW
08:00 10.9 °C 9.0 °C 1027.8 hPa NE 3.2 km/h 9.7 km/h 88% 0.0 mm 216.00 W/m2 FEW
08:05 11.1 °C 9.1 °C 1027.8 hPa NE 8.0 km/h 9.7 km/h 87% 0.0 mm 239.00 W/m2 FEW
08:10 11.3 °C 9.1 °C 1027.7 hPa NE 4.8 km/h 14.5 km/h 86% 0.0 mm 258.00 W/m2 FEW
08:15 11.4 °C 9.0 °C 1027.8 hPa NE 4.8 km/h 14.5 km/h 85% 0.0 mm 276.00 W/m2 FEW
08:20 11.7 °C 9.2 °C 1027.9 hPa NE 3.2 km/h 6.4 km/h 85% 0.0 mm 292.00 W/m2 FEW
08:25 11.8 °C 9.2 °C 1028.0 hPa NNE 3.2 km/h 8.0 km/h 84% 0.0 mm 309.00 W/m2 FEW
08:30 11.9 °C 9.4 °C 1028.0 hPa NNE 3.2 km/h 8.0 km/h 85% 0.0 mm 320.00 W/m2 FEW
08:35 12.1 °C 9.3 °C 1028.0 hPa NE 4.8 km/h 14.5 km/h 83% 0.0 mm 338.00 W/m2 FEW
08:40 12.2 °C 9.4 °C 1028.0 hPa NE 8.0 km/h 12.9 km/h 83% 0.0 mm 348.00 W/m2 FEW
08:45 12.3 °C 9.5 °C 1028.0 hPa NE 3.2 km/h 12.9 km/h 83% 0.0 mm 362.00 W/m2 FEW
08:50 12.6 °C 9.6 °C 1028.0 hPa NNE 3.2 km/h 6.4 km/h 82% 0.0 mm 380.00 W/m2 FEW
08:55 12.7 °C 9.5 °C 1028.1 hPa NE 4.8 km/h 14.5 km/h 81% 0.0 mm 396.00 W/m2 FEW
09:00 12.8 °C 9.7 °C 1028.1 hPa NE 8.0 km/h 11.3 km/h 81% 0.0 mm 406.00 W/m2 FEW
09:05 12.9 °C 9.6 °C 1028.1 hPa NE 4.8 km/h 11.3 km/h 80% 0.0 mm 417.00 W/m2 FEW
09:10 13.0 °C 9.6 °C 1028.2 hPa NE 4.8 km/h 11.3 km/h 80% 0.0 mm 432.00 W/m2 FEW
09:15 13.2 °C 9.8 °C 1028.2 hPa NE 4.8 km/h 11.3 km/h 80% 0.0 mm 450.00 W/m2 FEW
09:20 13.2 °C 9.4 °C 1028.3 hPa NE 4.8 km/h 14.5 km/h 78% 0.0 mm 468.00 W/m2 FEW
09:25 13.3 °C 9.7 °C 1028.3 hPa NE 1.6 km/h 11.3 km/h 79% 0.0 mm 483.00 W/m2 FEW
09:30 13.6 °C 9.8 °C 1028.3 hPa NNE 4.8 km/h 11.3 km/h 78% 0.0 mm 497.00 W/m2 FEW
09:35 13.8 °C 10.0 °C 1028.3 hPa NE 8.0 km/h 11.3 km/h 78% 0.0 mm 515.00 W/m2 FEW
09:40 13.8 °C 9.9 °C 1028.3 hPa NE 8.0 km/h 14.5 km/h 77% 0.0 mm 517.00 W/m2 FEW
09:45 14.0 °C 10.1 °C 1028.3 hPa NE 3.2 km/h 11.3 km/h 77% 0.0 mm 527.00 W/m2 FEW
09:50 14.1 °C 9.9 °C 1028.3 hPa NE 4.8 km/h 14.5 km/h 76% 0.0 mm 543.00 W/m2 FEW
09:55 14.3 °C 10.1 °C 1028.3 hPa NE 3.2 km/h 11.3 km/h 76% 0.0 mm 566.00 W/m2 FEW
10:00 14.4 °C 10.1 °C 1028.2 hPa NE 4.8 km/h 11.3 km/h 75% 0.0 mm 577.00 W/m2 FEW
10:05 14.7 °C 9.7 °C 1028.3 hPa NE 8.0 km/h 12.9 km/h 72% 0.0 mm 585.00 W/m2 FEW
10:10 14.8 °C 9.6 °C 1028.3 hPa NE 8.0 km/h 11.3 km/h 71% 0.0 mm 603.00 W/m2 FEW
10:15 14.9 °C 9.7 °C 1028.3 hPa NE 4.8 km/h 11.3 km/h 71% 0.0 mm 615.00 W/m2 FEW
10:20 15.2 °C 9.6 °C 1028.3 hPa NE 3.2 km/h 11.3 km/h 69% 0.0 mm 622.00 W/m2 FEW
10:25 15.4 °C 8.8 °C 1028.3 hPa NE 4.8 km/h 9.7 km/h 65% 0.0 mm 642.00 W/m2 FEW
Pointe-Claire Weather